SKYSAT-C5

Last updated on Sun Apr 12 2026 00:02:35 GMT+0000 (Coordinated Universal Time)

1 41772U 16058C 26101.37238618 .00006160 00000+0 18744-3 0 9998 2 41772 97.0553 145.0114 0002955 154.6595 205.4794 15.34348290533500
UTC large
Height (km)
Speed (km/s)
/
Latitude / Longitude
Inclination (degrees)
Orbital Period (minutes)
Azimuth
Elevation
Range (km)
Doppler Factor

Next 0 passes for location: London (51.5072 / 0.1276)

Sorry there are no passes over London.
SKYSAT-C5